This demonstration page uses our WeatherBlox Daily Observations layout. Learn more.

Left ArrowRight Arrow

Hourly Observations for November 30, 2021

Temp ( °F °C ) Dew Point ( °F °C ) Humidity (%) Winds ( mph kmh ) Pressure ( in mb ) Visibility ( mi km ) Precip ( " mm )
12:54 am 00:54 Clear 38 3.3 30 -1.1 73 73 NNW 3 6 30.06 1018 10 16 N/A
1:54 am 01:54 Clear 33 0.6 28 -2.2 82 82 N 5 7 30.08 1019 10 16 N/A
2:54 am 02:54 Clear 33 0.6 29 -1.7 85 85 N 9 15 30.09 1019 10 16 N/A
3:54 am 03:54 Clear 34 1.1 30 -1.1 85 85 N 8 13 30.10 1019 10 16 N/A
4:54 am 04:54 Clear 35 1.7 29 -1.7 78 78 N N/A 30.14 1021 10 16 N/A
5:54 am 05:54 Clear 35 1.7 30 -1.1 82 82 N N/A 30.16 1022 10 16 N/A
6:54 am 06:54 Clear 35 1.7 31 -0.6 85 85 N 5 7 30.18 1022 10 16 N/A
7:54 am 07:54 Sunny 37 2.8 32 undefined 82 82 N 9 15 30.19 1022 10 16 N/A
8:54 am 08:54 Sunny 39 3.9 34 1.1 82 82 NNE 5 7 30.23 1024 10 16 N/A
9:54 am 09:54 Mostly Cloudy 45 7.2 35 1.7 68 68 NW 5 7 30.26 1025 10 16 N/A
10:54 am 10:54 Sunny 49 9.4 36 2.2 61 61 N N/A 30.25 1024 10 16 N/A
11:54 am 11:54 Sunny 53 11.7 37 2.8 55 55 SSE 6 9 30.21 1023 10 16 N/A
12:54 pm 12:54 Partly Cloudy 53 11.7 36 2.2 52 52 S 7 11 30.17 1022 10 16 N/A
1:54 pm 13:54 Mostly Cloudy 57 13.9 37 2.8 47 47 undefined N/A 30.14 1021 10 16 N/A
2:54 pm 14:54 Mostly Cloudy 57 13.9 36 2.2 45 45 S 3 6 30.12 1020 10 16 N/A
3:54 pm 15:54 Sunny 57 13.9 36 2.2 45 45 N N/A 30.10 1019 10 16 N/A
4:54 pm 16:54 Partly Cloudy 51 10.6 36 2.2 56 56 SSE 5 7 30.09 1019 10 16 N/A
5:54 pm 17:54 Clear 50 10 34 1.1 54 54 SSE 5 7 30.08 1019 10 16 N/A
6:54 pm 18:54 Mostly Clear 46 7.8 34 1.1 63 63 SSE 8 13 30.06 1018 10 16 N/A
7:54 pm 19:54 Clear 47 8.3 35 1.7 63 63 SSE 3 6 30.05 1018 10 16 N/A
8:54 pm 20:54 Clear 45 7.2 35 1.7 68 68 SSE 6 9 30.04 1017 10 16 N/A
9:54 pm 21:54 Clear 45 7.2 35 1.7 68 68 N N/A 30.03 1017 10 16 N/A
10:54 pm 22:54 Clear 47 8.3 35 1.7 63 63 SW 8 13 30.01 1016 10 16 N/A
11:54 pm 23:54 Mostly Clear 46 7.8 35 1.7 66 66 SSW 7 11 29.97 1015 10 16 N/A

Powered by AerisWeather